sat.trackr.live / text

‹ back to catalog

STARLINK-6039

NORAD 56319 · 2023-058C

PAYLOAD ACTIVE UNKNOWN

§ Identity

Operator
Country
US
Launch date
2023-04-27
Launch site
AFWTR
Launch vehicle
Mass (kg)
RCS (m²)

Purposes: comms

External: N2YO · Heavens-Above · Gunter

§ Orbital elements

Epoch: 2026-05-24T22:49:44.749632Z

Period
95.64 min
Inclination
97.4510°
Eccentricity
0.0002123
Mean motion
15.05690984 rev/d
Perigee alt
547.9 km
Apogee alt
550.9 km
Semi-major
6,927.5 km
B*
-4.6971e-4
RAAN
144.9831°
Arg perigee
72.1228°
Mean anomaly
288.0230°
Rev number
16,925

§ Raw data

STARLINK-60391 56319U 23058C   26144.95121238 -.00006837  00000+0 -46971-3 0  99952 56319  97.4510 144.9831 0002123  72.1228 288.0230 15.05690984169255

JSON: /api/v1/satellites/56319 · /tle

For live sub-satellite position, see the globe view (requires WebGL).

§ Visibility from observer

Set your observer location to see the next 7 days of passes ≥ 10°. The values pass through the URL so the page stays shareable.

No JS? Fill the form by hand. The geolocation button needs JavaScript.